Location: Unspecified
(0.0000°N, 0.0000°E)
Time: 15:51:08
(UTC+00:00)

Vanguard 1 - Pass Details

Date: 16 December 2017
Orbit: 650 x 3833 km, 34.2° (Epoch: 22 July)

Event Time Altitude Azimuth Distance (km) Brightness Sun altitude
Rises 17:08:32 0° 304° (NW) 3,894 13.6 10.8°
Reaches altitude 10° 17:11:42 10° 303° (WNW) 2,606 12.8 10.1°
Maximum altitude 17:17:20 79° 217° (SW) 722 9.7 8.8°
Drops below altitude 10° 17:21:44 10° 130° (SE) 2,043 11.5 7.8°
Sets 17:23:57 0° 129° (SE) 2,976 12.3 7.3°
